Location: Six Mile Lake
(44.9000°N, 79.7170°W)
Time: 12:57:26
(UTC-04:00)

O/OREOS (USA 219) - Pass Details

Date: 05 July 2022
Orbit: 621 x 646 km, 72.0° (Epoch: 22 May)

Event Time Altitude Azimuth Distance (km) Brightness Sun altitude
Rises 01:25:08 0° 330° (NNW) 2,965 ? -22.3°
Reaches altitude 10° 01:27:29 10° 324° (NW) 2,052 ? -22.3°
Maximum altitude 01:31:53 46° 252° (WSW) 873 ? -22.3°
Enters shadow 01:32:04 45° 245° (WSW) 876 ? -22.3°
